Powrót do katalogu

GGSE 3

AktywnyNaukaLEO
NORAD 1292·PAYLOAD·🇺🇸 United States

Wystrzelony Mar 9, 1965 z Vandenberg Space Force Base

Loading…

Następne Przeloty (najbliższe 24 godziny)

TLE

ŚwieżeSource: Space-Track

Epoka: Sep 14, 2026, 00:05 UTC

1 01292U 65016C   26257.00376894  .00000089  00000-0  93792-4 0  9992
2 01292  70.0759 120.7169 0019961 198.7719 161.2657 14.01609582137014

Śledź GGSE 3 w czasie rzeczywistym z AllMySat

Download on the App Store